TimeEDT,TemperatureF,Dew PointF,Humidity,Sea Level PressureIn,VisibilityMPH,Wind Direction,Wind SpeedMPH,Gust SpeedMPH,PrecipitationIn,Events,Conditions,WindDirDegrees,DateUTC
12:15 AM,37.4,35.6,93,29.72,7.0,East,12.7,-,N/A,Thunderstorm,Overcast,80,2013-04-12 04:15:00
12:35 AM,37.4,35.6,93,29.70,7.0,East,11.5,16.1,N/A,Thunderstorm,Overcast,90,2013-04-12 04:35:00
12:55 AM,37.4,35.6,93,29.70,7.0,East,10.4,-,N/A,,Overcast,100,2013-04-12 04:55:00
1:15 AM,39.2,37.4,93,29.69,10.0,ESE,11.5,-,N/A,,Overcast,120,2013-04-12 05:15:00
1:35 AM,39.2,37.4,93,29.68,10.0,ESE,11.5,-,N/A,,Overcast,120,2013-04-12 05:35:00
1:55 AM,41.0,37.4,87,29.65,10.0,ESE,13.8,-,N/A,,Overcast,120,2013-04-12 05:55:00
2:15 AM,41.0,39.2,93,29.64,10.0,SE,12.7,20.7,N/A,,Overcast,130,2013-04-12 06:15:00
2:35 AM,42.8,39.2,87,29.62,10.0,SE,11.5,18.4,N/A,,Overcast,130,2013-04-12 06:35:00
2:55 AM,42.8,41.0,93,29.61,10.0,SE,12.7,18.4,N/A,,Overcast,130,2013-04-12 06:55:00
3:15 AM,44.6,42.8,93,29.59,10.0,SE,11.5,17.3,N/A,,Overcast,130,2013-04-12 07:15:00
3:35 AM,44.6,42.8,93,29.59,10.0,SE,11.5,-,N/A,,Overcast,130,2013-04-12 07:35:00
3:55 AM,46.4,44.6,93,29.57,9.0,SSE,11.5,18.4,N/A,,Overcast,150,2013-04-12 07:55:00
4:15 AM,46.4,44.6,93,29.57,10.0,SSE,9.2,17.3,N/A,,Overcast,160,2013-04-12 08:15:00
4:35 AM,46.4,44.6,93,29.57,8.0,SSE,13.8,18.4,N/A,,Overcast,150,2013-04-12 08:35:00
4:55 AM,46.4,46.4,100,29.58,8.0,SSE,9.2,16.1,N/A,,Overcast,160,2013-04-12 08:55:00
5:15 AM,48.2,46.4,93,29.57,7.0,SSE,9.2,-,N/A,,Overcast,160,2013-04-12 09:15:00
5:35 AM,48.2,46.4,93,29.56,6.0,SSE,8.1,-,N/A,,Overcast,160,2013-04-12 09:35:00
5:55 AM,48.2,46.4,93,29.55,5.0,South,10.4,-,0.01,,Overcast,170,2013-04-12 09:55:00
6:15 AM,48.2,46.4,93,29.54,5.0,SSE,9.2,-,0.06,,Overcast,160,2013-04-12 10:15:00
6:35 AM,48.2,48.2,100,29.53,5.0,SSE,5.8,-,0.09,,Overcast,160,2013-04-12 10:35:00
7:55 AM,48.2,46.4,93,29.52,7.0,SSE,12.7,-,N/A,,Overcast,160,2013-04-12 11:55:00
8:15 AM,48.2,46.4,93,29.52,8.0,SSE,10.4,19.6,N/A,,Overcast,160,2013-04-12 12:15:00
8:35 AM,48.2,46.4,93,29.52,10.0,SSE,12.7,19.6,N/A,,Overcast,160,2013-04-12 12:35:00
8:55 AM,48.2,46.4,93,29.51,9.0,SSE,12.7,19.6,0.03,,Overcast,150,2013-04-12 12:55:00
9:15 AM,48.2,46.4,93,29.52,10.0,South,10.4,18.4,0.03,,Overcast,170,2013-04-12 13:15:00
9:35 AM,48.2,46.4,93,29.52,10.0,South,11.5,17.3,0.03,,Overcast,170,2013-04-12 13:35:00
9:55 AM,48.2,46.4,93,29.51,10.0,South,10.4,-,0.03,,Overcast,170,2013-04-12 13:55:00
10:15 AM,48.2,46.4,93,29.51,10.0,South,12.7,17.3,N/A,,Overcast,170,2013-04-12 14:15:00
10:55 AM,48.2,46.4,93,29.50,10.0,SSE,11.5,16.1,N/A,,Overcast,160,2013-04-12 14:55:00
11:15 AM,48.2,48.2,100,29.51,10.0,SSE,11.5,-,N/A,,Overcast,160,2013-04-12 15:15:00
11:35 AM,50.0,48.2,94,29.52,10.0,South,9.2,-,N/A,,Overcast,170,2013-04-12 15:35:00
11:55 AM,50.0,48.2,94,29.52,8.0,South,5.8,-,N/A,,Overcast,170,2013-04-12 15:55:00
12:15 PM,50.0,48.2,94,29.54,6.0,SSW,8.1,-,0.01,,Overcast,200,2013-04-12 16:15:00
12:35 PM,46.4,42.8,87,29.56,4.0,West,15.0,23.0,0.01,,Overcast,280,2013-04-12 16:35:00
12:55 PM,44.6,42.8,93,29.57,10.0,West,13.8,-,0.01,,Overcast,270,2013-04-12 16:55:00
1:15 PM,44.6,42.8,93,29.59,5.0,West,18.4,-,N/A,,Overcast,260,2013-04-12 17:15:00
1:35 PM,44.6,42.8,93,29.60,3.0,West,13.8,-,N/A,,Overcast,270,2013-04-12 17:35:00
1:55 PM,44.6,41.0,87,29.62,8.0,West,12.7,20.7,N/A,,Overcast,280,2013-04-12 17:55:00
2:15 PM,42.8,39.2,87,29.63,10.0,West,15.0,-,N/A,,Overcast,280,2013-04-12 18:15:00
2:35 PM,42.8,39.2,87,29.64,10.0,WNW,11.5,17.3,N/A,,Overcast,300,2013-04-12 18:35:00
2:55 PM,41.0,37.4,87,29.65,10.0,West,10.4,-,N/A,,Overcast,280,2013-04-12 18:55:00
3:15 PM,42.8,37.4,81,29.65,10.0,West,12.7,17.3,N/A,,Overcast,260,2013-04-12 19:15:00
3:35 PM,42.8,37.4,81,29.66,7.0,West,12.7,-,N/A,,Overcast,260,2013-04-12 19:35:00
3:55 PM,42.8,37.4,81,29.66,10.0,West,11.5,-,N/A,,Overcast,260,2013-04-12 19:55:00
4:15 PM,42.8,39.2,87,29.66,10.0,WSW,8.1,-,N/A,,Overcast,250,2013-04-12 20:15:00
4:35 PM,39.2,35.6,87,29.66,10.0,NW,11.5,-,N/A,,Overcast,310,2013-04-12 20:35:00
4:55 PM,39.2,37.4,93,29.67,8.0,NW,11.5,-,N/A,,Overcast,310,2013-04-12 20:55:00
5:35 PM,37.4,33.8,87,29.70,4.0,WNW,10.4,-,N/A,,Overcast,290,2013-04-12 21:35:00
5:55 PM,37.4,33.8,87,29.71,5.0,West,13.8,19.6,N/A,,Overcast,280,2013-04-12 21:55:00
6:15 PM,35.6,33.8,93,29.72,4.0,WNW,15.0,23.0,N/A,,Overcast,290,2013-04-12 22:15:00
6:35 PM,35.6,32.0,87,29.73,5.0,West,12.7,23.0,0.01,,Overcast,280,2013-04-12 22:35:00
6:55 PM,35.6,30.2,81,29.73,2.5,West,11.5,19.6,0.01,,Overcast,280,2013-04-12 22:55:00
7:15 PM,35.6,33.8,93,29.74,7.0,West,12.7,19.6,N/A,,Overcast,270,2013-04-12 23:15:00
7:35 PM,35.6,32.0,87,29.75,5.0,West,12.7,18.4,N/A,,Overcast,280,2013-04-12 23:35:00
7:55 PM,35.6,32.0,87,29.75,3.0,West,12.7,16.1,N/A,,Overcast,270,2013-04-12 23:55:00
8:15 PM,35.6,32.0,87,29.76,5.0,WSW,10.4,-,N/A,,Overcast,250,2013-04-13 00:15:00
8:35 PM,35.6,32.0,87,29.77,7.0,West,10.4,-,N/A,,Overcast,260,2013-04-13 00:35:00
8:55 PM,35.6,32.0,87,29.78,7.0,WSW,16.1,20.7,N/A,,Overcast,250,2013-04-13 00:55:00
9:15 PM,35.6,30.2,81,29.78,10.0,SW,15.0,24.2,N/A,,Overcast,230,2013-04-13 01:15:00
9:35 PM,35.6,30.2,81,29.78,10.0,SW,10.4,19.6,N/A,,Overcast,230,2013-04-13 01:35:00
9:55 PM,35.6,30.2,81,29.78,10.0,SW,11.5,-,N/A,,Overcast,220,2013-04-13 01:55:00
10:15 PM,35.6,30.2,81,29.78,10.0,SW,6.9,-,N/A,,Overcast,220,2013-04-13 02:15:00
10:35 PM,35.6,30.2,81,29.79,10.0,SW,10.4,-,N/A,,Overcast,220,2013-04-13 02:35:00
10:55 PM,35.6,30.2,81,29.79,10.0,SW,8.1,-,N/A,,Overcast,230,2013-04-13 02:55:00
11:15 PM,35.6,30.2,81,29.79,10.0,SSW,6.9,-,N/A,,Overcast,210,2013-04-13 03:15:00
11:35 PM,35.6,30.2,81,29.79,10.0,SW,5.8,-,N/A,,Overcast,220,2013-04-13 03:35:00
11:55 PM,35.6,30.2,81,29.79,10.0,WSW,10.4,17.3,N/A,,Overcast,240,2013-04-13 03:55:00